Location: Newark
(35.6799°N, 139.7636°E)
Time: 11:25:21
(UTC+00:00)

Vanguard 1 Rocket - Pass Details

Date: 16 December 2019
Orbit: 650 x 4226 km, 34.3° (Epoch: 17 January)

Event Time Altitude Azimuth Distance (km) Brightness Sun altitude
Rises 09:34:40 0° 237° (WSW) 8,465 13.5 -24.7°
Reaches altitude 10° 09:40:45 10° 236° (SW) 7,385 12.9 -25.9°
Maximum altitude 10:05:05 68° 159° (SSE) 3,313 10.0 -30.8°
Enters shadow 10:10:56 48° 99° (E) 3,300 9.7 -32.0°
